Weather in San Juan del Rio

Mexico     20°23′17″N   99°59′45″W
temp.,
°C
wind,
m/s
gust,
m/s
humid.,
%
clouds,
%
prec.,
mm/h
press.,
hPa
HPBL,
m
5 august, thu
thu501:00+15e239199 5.6 101966
04:00+15e2292100 1.6 101838
07:00+14ene2295100 1.8 101925
10:00+17e3481100 0.0 1020668
13:00+21ene4557100 0.1 10171533
16:00+22ene455564 0.1 10151311
19:00+22ene455974 0.3 1014545
22:00+16ese238726 1.4 101847
6 august, fri
fri601:00+15e119251 2.0 101914
04:00+14e119572 0.0 101911
07:00+13ese2297100 0.0 101915
10:00+16e238395 0.1 1020432
13:00+19ene346874 0.1 1018985
16:00+23e344854 0.0 10131674
19:00+23nne455076 0.0 1012233
22:00+16e4780100 0.0 1017202
7 august, sat
sat701:00+14ene2291100 0.0 101918
04:00+13e1192100 0.0 101811
07:00+12ese119318 0.0 101911
10:00+17e237469 0.0 1019606
13:00+22ene335699 0.0 10161385
16:00+25ne443993 0.1 10122492
19:00+22nne575188 0.1 1011291
22:00+17e477438 0.1 1016281
8 august, sun
sun801:00+14ese22905 0.1 101816
04:00+13ese11935 0.0 101711
07:00+12se11942 0.0 101811
10:00+17e237421 0.0 1018662
13:00+23ene345318 0.0 10151510
16:00+26ene453996 0.2 10112639
19:00+17wsw128448 2.4 101451
22:00+15e259179 5.1 1017111
9 august, mon
mon901:00+14e229397 5.8 101814
04:00+13ene1194100 0.0 101811
07:00+13e1196100 0.0 101811
10:00+17ene238199 0.0 1019659
13:00+22ene45461 0.0 10161523
16:00+25ene55355 0.0 10122325
19:00+22ene684962 0.0 1012436
22:00+16e367410 0.0 1017131